QPF
0.01 0.01 0.01 0.02 0.02 0.02 0.02 0.02 0.03 0.02 0.01 0.01 0.01 0.00 0.00 0.00 0.00 0.01 0.01 0.01 0.02 0.03 0.03 0.02 0.02 0.02 0.01 0.02 0.03 0.03 0.02 0.02 0.02 0.01 0.01 0.01 0.01 0.02 0.04 0.04 0.03 0.03 0.02
0.02 0.02 0.02 0.02 0.02 0.02 0.02 0.02 0.02 0.02 0.01 0.01 0.01 0.01 0.00 0.00 0.00 0.01 0.01 0.01 0.01 0.02 0.02 0.03 0.02 0.02 0.02 0.02 0.02 0.02 0.02 0.02 0.02 0.02 0.02 0.01 0.01 0.01 0.02 0.05 0.05 0.04 0.03
0.02 0.01 0.02 0.02 0.02 0.02 0.03 0.02 0.02 0.02 0.02 0.01 0.01 0.01 0.01 0.01 0.00 0.00 0.01 0.01 0.01 0.01 0.01 0.02 0.03 0.03 0.03 0.02 0.02 0.02 0.02 0.02 0.02 0.01 0.01 0.01 0.01 0.01 0.01 0.04 0.06 0.05 0.03
0.03 0.02 0.01 0.02 0.02 0.02 0.02 0.02 0.02 0.03 0.03 0.02 0.01 0.01 0.01 0.01 0.01 0.00 0.01 0.01 0.01 0.01 0.00 0.01 0.02 0.02 0.03 0.01 0.02 0.02 0.01 0.01 0.01 0.01 0.01 0.00 0.00 0.01 0.01 0.02 0.05 0.05 0.03
0.01 0.01 0.01 0.00 0.01 0.02 0.02 0.02 0.02 0.02 0.02 0.02 0.02 0.01 0.01 0.01 0.00 0.00 0.00 0.01 0.01 0.01 0.01 0.00 0.00 0.01 0.02 0.01 0.01 0.02 0.02 0.01 0.01 0.01 0.01 0.01 0.00 0.00 0.01 0.02 0.03 0.04 0.02
0.01 0.01 0.01 0.00 0.01 0.01 0.02 0.03 0.03 0.03 0.02 0.02 0.02 0.01 0.01 0.01 0.00 0.00 0.00 0.00 0.00 0.01 0.01 0.01 0.00 0.00 0.01 0.01 0.01 0.02 0.02 0.01 0.01 0.01 0.01 0.01 0.01 0.00 0.01 0.01 0.02 0.03 0.02
0.04 0.03 0.02 0.01 0.01 0.01 0.01 0.02 0.02 0.03 0.03 0.02 0.02 0.02 0.02 0.01 0.01 0.01 0.00 0.00 0.00 0.00 0.01 0.01 0.01 0.00 0.00 0.00 0.01 0.01 0.02 0.01 0.01 0.01 0.01 0.01 0.01 0.01 0.01 0.01 0.02 0.02 0.02
0.04 0.04 0.04 0.02 0.01 0.01 0.01 0.02 0.02 0.03 0.03 0.03 0.03 0.02 0.02 0.02 0.02 0.01 0.01 0.00 0.00 0.00 0.01 0.01 0.02 0.01 0.00 0.00 0.00 0.01 0.01 0.01 0.01 0.01 0.01 0.01 0.01 0.01 0.01 0.02 0.02 0.02 0.02
0.03 0.03 0.04 0.03 0.02 0.02 0.02 0.02 0.02 0.02 0.03 0.03 0.03 0.03 0.02 0.02 0.02 0.02 0.01 0.01 0.01 0.01 0.01 0.01 0.02 0.01 0.01 0.00 0.00 0.00 0.01 0.01 0.01 0.01 0.01 0.01 0.01 0.01 0.01 0.02 0.02 0.03 0.03
0.02 0.02 0.03 0.03 0.03 0.02 0.03 0.02 0.02 0.02 0.03 0.03 0.04 0.03 0.02 0.02 0.02 0.02 0.02 0.01 0.01 0.01 0.02 0.02 0.02 0.02 0.02 0.01 0.00 0.01 0.01 0.01 0.01 0.01 0.02 0.02 0.02 0.01 0.01 0.02 0.02 0.03 0.03
0.02 0.02 0.02 0.03 0.03 0.03 0.03 0.03 0.02 0.02 0.03 0.03 0.03 0.04 0.03 0.02 0.01 0.01 0.01 0.01 0.01 0.01 0.01 0.02 0.02 0.02 0.02 0.02 0.01 0.01 0.01 0.01 0.01 0.01 0.02 0.02 0.03 0.02 0.02 0.02 0.02 0.02 0.03
0.02 0.02 0.02 0.03 0.03 0.03 0.02 0.02 0.03 0.03 0.03 0.03 0.03 0.03 0.04 0.03 0.02 0.02 0.01 0.01 0.01 0.01 0.01 0.01 0.02 0.02 0.02 0.02 0.02 0.01 0.01 0.01 0.01 0.01 0.02 0.03 0.04 0.03 0.03 0.02 0.02 0.02 0.02
0.01 0.02 0.01 0.03 0.03 0.03 0.03 0.02 0.03 0.03 0.03 0.03 0.03 0.02 0.03 0.04 0.03 0.03 0.02 0.01 0.01 0.01 0.01 0.01 0.02 0.02 0.02 0.03 0.02 0.02 0.01 0.01 0.01 0.01 0.02 0.02 0.03 0.03 0.03 0.01 0.01 0.02 0.01
0.01 0.01 0.01 0.02 0.03 0.03 0.03 0.02 0.02 0.02 0.02 0.02 0.02 0.02 0.02 0.03 0.03 0.03 0.03 0.02 0.02 0.01 0.01 0.01 0.01 0.02 0.02 0.03 0.03 0.02 0.02 0.02 0.01 0.01 0.01 0.02 0.02 0.03 0.03 0.02 0.01 0.01 0.01
0.03 0.02 0.01 0.02 0.03 0.02 0.02 0.02 0.02 0.02 0.02 0.02 0.02 0.02 0.02 0.03 0.03 0.03 0.03 0.03 0.03 0.02 0.01 0.01 0.01 0.01 0.02 0.02 0.02 0.02 0.02 0.02 0.02 0.01 0.01 0.01 0.01 0.02 0.03 0.02 0.01 0.01 0.01
0.04 0.03 0.02 0.02 0.02 0.02 0.01 0.01 0.02 0.02 0.02 0.03 0.03 0.03 0.03 0.03 0.03 0.03 0.03 0.03 0.03 0.03 0.03 0.01 0.01 0.01 0.02 0.02 0.02 0.02 0.02 0.02 0.02 0.02 0.01 0.01 0.01 0.01 0.02 0.02 0.01 0.01 0.01
0.03 0.03 0.02 0.02 0.02 0.01 0.01 0.01 0.02 0.02 0.02 0.03 0.03 0.03 0.03 0.03 0.03 0.03 0.03 0.03 0.04 0.04 0.04 0.02 0.01 0.01 0.02 0.02 0.02 0.02 0.02 0.02 0.02 0.02 0.02 0.01 0.01 0.01 0.02 0.02 0.02 0.01 0.00
0.02 0.01 0.01 0.01 0.01 0.01 0.01 0.01 0.01 0.02 0.02 0.03 0.04 0.04 0.04 0.04 0.04 0.04 0.03 0.03 0.04 0.04 0.04 0.04 0.02 0.02 0.01 0.01 0.02 0.02 0.02 0.02 0.02 0.03 0.02 0.02 0.02 0.02 0.01 0.02 0.02 0.01 0.01
0.02 0.02 0.01 0.01 0.01 0.01 0.01 0.02 0.02 0.02 0.02 0.03 0.04 0.04 0.04 0.04 0.04 0.05 0.04 0.03 0.04 0.04 0.04 0.04 0.03 0.03 0.02 0.02 0.02 0.02 0.02 0.02 0.03 0.03 0.03 0.03 0.02 0.02 0.02 0.01 0.02 0.02 0.01
0.03 0.03 0.02 0.02 0.01 0.01 0.01 0.02 0.02 0.02 0.02 0.03 0.04 0.04 0.04 0.04 0.04 0.04 0.04 0.03 0.03 0.04 0.05 0.05 0.05 0.05 0.04 0.03 0.03 0.03 0.03 0.03 0.03 0.03 0.04 0.04 0.03 0.03 0.02 0.02 0.02 0.02 0.01
0.05 0.05 0.03 0.03 0.03 0.02 0.02 0.02 0.02 0.02 0.03 0.04 0.04 0.05 0.05 0.04 0.04 0.04 0.04 0.03 0.03 0.04 0.05 0.06 0.06 0.06 0.05 0.05 0.05 0.04 0.04 0.04 0.03 0.03 0.04 0.03 0.03 0.03 0.03 0.02 0.02 0.02 0.02
0.04 0.04 0.04 0.03 0.04 0.04 0.04 0.03 0.03 0.03 0.03 0.03 0.04 0.05 0.06 0.06 0.06 0.06 0.06 0.04 0.04 0.05 0.06 0.06 0.06 0.05 0.04 0.04 0.04 0.04 0.05 0.06 0.06 0.05 0.04 0.04 0.04 0.04 0.03 0.03 0.02 0.03 0.03
0.02 0.02 0.03 0.03 0.04 0.04 0.04 0.04 0.04 0.04 0.03 0.03 0.04 0.05 0.06 0.05 0.05 0.05 0.06 0.05 0.05 0.06 0.06 0.06 0.06 0.05 0.04 0.04 0.04 0.05 0.04 0.05 0.06 0.06 0.06 0.06 0.06 0.05 0.04 0.04 0.04 0.03 0.03
0.02 0.02 0.03 0.03 0.03 0.04 0.04 0.04 0.04 0.04 0.04 0.03 0.04 0.04 0.05 0.05 0.05 0.04 0.04 0.05 0.05 0.06 0.06 0.06 0.06 0.06 0.05 0.04 0.05 0.05 0.05 0.05 0.05 0.05 0.06 0.07 0.07 0.06 0.05 0.05 0.05 0.04 0.04
0.03 0.03 0.03 0.03 0.04 0.05 0.04 0.04 0.04 0.04 0.04 0.04 0.05 0.05 0.05 0.05 0.06 0.05 0.04 0.05 0.05 0.05 0.05 0.05 0.06 0.06 0.06 0.06 0.06 0.07 0.07 0.06 0.06 0.05 0.05 0.05 0.05 0.06 0.04 0.04 0.04 0.04 0.04
0.03 0.03 0.03 0.03 0.04 0.05 0.04 0.04 0.04 0.04 0.05 0.05 0.06 0.06 0.06 0.06 0.05 0.05 0.04 0.05 0.05 0.05 0.05 0.05 0.04 0.04 0.04 0.04 0.05 0.06 0.07 0.07 0.05 0.04 0.03 0.04 0.05 0.06 0.06 0.04 0.03 0.03 0.03
MSLP
1025.97 1026.08 1026.16 1026.21 1026.23 1026.20 1026.14 1026.02 1025.88 1025.71 1025.55 1025.40 1025.28 1025.22 1025.23 1025.29 1025.40 1025.54 1025.66 1025.74 1025.77 1025.73 1025.62 1025.46 1025.27 1025.08 1024.91 1024.77 1024.65 1024.55 1024.44 1024.32 1024.17 1024.00 1023.80 1023.60 1023.42 1023.26 1023.13 1023.05 1022.99 1022.95 1022.93
1026.04 1026.13 1026.22 1026.29 1026.33 1026.34 1026.31 1026.24 1026.12 1025.99 1025.84 1025.71 1025.62 1025.59 1025.62 1025.72 1025.86 1026.03 1026.18 1026.28 1026.33 1026.30 1026.19 1026.04 1025.85 1025.66 1025.49 1025.34 1025.21 1025.10 1024.98 1024.85 1024.68 1024.48 1024.26 1024.03 1023.81 1023.60 1023.42 1023.27 1023.15 1023.04 1022.95
1026.13 1026.22 1026.31 1026.39 1026.45 1026.49 1026.49 1026.45 1026.38 1026.27 1026.16 1026.06 1026.00 1025.99 1026.05 1026.17 1026.33 1026.51 1026.67 1026.78 1026.83 1026.81 1026.71 1026.56 1026.38 1026.20 1026.03 1025.88 1025.75 1025.63 1025.51 1025.36 1025.18 1024.97 1024.73 1024.48 1024.23 1023.99 1023.77 1023.57 1023.38 1023.21 1023.05
1026.25 1026.35 1026.44 1026.52 1026.60 1026.66 1026.69 1026.68 1026.64 1026.57 1026.49 1026.42 1026.39 1026.40 1026.47 1026.60 1026.76 1026.94 1027.09 1027.21 1027.25 1027.23 1027.14 1027.01 1026.85 1026.68 1026.52 1026.39 1026.26 1026.14 1026.01 1025.85 1025.67 1025.44 1025.20 1024.94 1024.67 1024.41 1024.16 1023.92 1023.69 1023.46 1023.25
1026.37 1026.48 1026.59 1026.69 1026.78 1026.85 1026.90 1026.91 1026.90 1026.86 1026.81 1026.77 1026.75 1026.78 1026.86 1026.98 1027.13 1027.29 1027.44 1027.54 1027.59 1027.57 1027.50 1027.39 1027.26 1027.12 1026.99 1026.87 1026.75 1026.63 1026.49 1026.32 1026.12 1025.89 1025.64 1025.37 1025.10 1024.83 1024.57 1024.31 1024.05 1023.79 1023.53
1026.45 1026.60 1026.73 1026.85 1026.96 1027.04 1027.11 1027.14 1027.14 1027.12 1027.10 1027.07 1027.08 1027.11 1027.19 1027.30 1027.44 1027.58 1027.71 1027.80 1027.84 1027.84 1027.80 1027.72 1027.63 1027.53 1027.43 1027.33 1027.22 1027.09 1026.94 1026.76 1026.54 1026.29 1026.03 1025.76 1025.49 1025.22 1024.96 1024.70 1024.44 1024.16 1023.86
1026.45 1026.65 1026.82 1026.97 1027.10 1027.21 1027.29 1027.34 1027.36 1027.36 1027.35 1027.35 1027.37 1027.41 1027.48 1027.59 1027.70 1027.82 1027.93 1028.01 1028.06 1028.07 1028.05 1028.02 1027.96 1027.90 1027.83 1027.75 1027.64 1027.51 1027.34 1027.13 1026.89 1026.63 1026.35 1026.08 1025.81 1025.55 1025.31 1025.06 1024.80 1024.52 1024.22
1026.36 1026.61 1026.83 1027.03 1027.19 1027.32 1027.42 1027.49 1027.53 1027.55 1027.57 1027.59 1027.63 1027.69 1027.77 1027.86 1027.96 1028.06 1028.15 1028.22 1028.26 1028.29 1028.29 1028.28 1028.26 1028.23 1028.18 1028.11 1028.00 1027.85 1027.66 1027.43 1027.17 1026.89 1026.60 1026.32 1026.06 1025.82 1025.59 1025.36 1025.12 1024.86 1024.56
1026.17 1026.48 1026.76 1027.00 1027.20 1027.37 1027.50 1027.59 1027.67 1027.72 1027.77 1027.83 1027.89 1027.97 1028.06 1028.15 1028.24 1028.33 1028.40 1028.45 1028.48 1028.51 1028.52 1028.52 1028.51 1028.50 1028.45 1028.38 1028.26 1028.10 1027.89 1027.64 1027.35 1027.06 1026.76 1026.49 1026.24 1026.01 1025.80 1025.59 1025.38 1025.13 1024.85
1025.91 1026.27 1026.60 1026.89 1027.14 1027.35 1027.51 1027.64 1027.75 1027.85 1027.95 1028.04 1028.15 1028.26 1028.37 1028.48 1028.57 1028.63 1028.68 1028.72 1028.73 1028.74 1028.73 1028.73 1028.71 1028.68 1028.63 1028.54 1028.41 1028.23 1028.01 1027.74 1027.45 1027.16 1026.87 1026.60 1026.36 1026.14 1025.95 1025.76 1025.56 1025.34 1025.08
1025.60 1026.00 1026.37 1026.71 1027.00 1027.25 1027.46 1027.63 1027.79 1027.93 1028.08 1028.23 1028.39 1028.54 1028.69 1028.81 1028.91 1028.97 1029.00 1029.00 1028.99 1028.96 1028.93 1028.89 1028.85 1028.79 1028.71 1028.60 1028.45 1028.26 1028.02 1027.76 1027.48 1027.20 1026.93 1026.68 1026.45 1026.25 1026.07 1025.88 1025.69 1025.47 1025.22
1025.28 1025.70 1026.10 1026.47 1026.80 1027.08 1027.33 1027.55 1027.75 1027.95 1028.15 1028.36 1028.57 1028.77 1028.96 1029.11 1029.22 1029.28 1029.30 1029.28 1029.24 1029.17 1029.09 1029.01 1028.92 1028.82 1028.70 1028.56 1028.39 1028.19 1027.97 1027.72 1027.47 1027.22 1026.97 1026.75 1026.54 1026.35 1026.16 1025.97 1025.76 1025.54 1025.28
1024.94 1025.37 1025.79 1026.18 1026.53 1026.84 1027.11 1027.36 1027.61 1027.85 1028.11 1028.37 1028.64 1028.90 1029.13 1029.31 1029.45 1029.52 1029.54 1029.51 1029.43 1029.33 1029.21 1029.08 1028.94 1028.79 1028.64 1028.47 1028.28 1028.09 1027.88 1027.66 1027.44 1027.23 1027.02 1026.82 1026.63 1026.43 1026.24 1026.02 1025.79 1025.53 1025.25
1024.55 1024.99 1025.42 1025.81 1026.17 1026.50 1026.79 1027.06 1027.34 1027.62 1027.92 1028.23 1028.55 1028.86 1029.13 1029.36 1029.54 1029.64 1029.67 1029.64 1029.56 1029.43 1029.28 1029.11 1028.93 1028.74 1028.55 1028.36 1028.17 1027.97 1027.78 1027.59 1027.41 1027.24 1027.07 1026.89 1026.71 1026.51 1026.29 1026.04 1025.76 1025.46 1025.15
1024.09 1024.53 1024.95 1025.35 1025.71 1026.04 1026.34 1026.63 1026.93 1027.23 1027.56 1027.91 1028.27 1028.62 1028.94 1029.22 1029.44 1029.58 1029.65 1029.65 1029.58 1029.46 1029.30 1029.12 1028.91 1028.70 1028.49 1028.28 1028.07 1027.88 1027.71 1027.54 1027.39 1027.25 1027.10 1026.94 1026.76 1026.54 1026.29 1026.00 1025.68 1025.33 1024.97
1023.51 1023.94 1024.37 1024.76 1025.13 1025.46 1025.76 1026.06 1026.36 1026.68 1027.03 1027.40 1027.79 1028.18 1028.55 1028.88 1029.15 1029.35 1029.47 1029.52 1029.50 1029.41 1029.27 1029.10 1028.89 1028.67 1028.45 1028.23 1028.02 1027.83 1027.66 1027.50 1027.37 1027.23 1027.09 1026.93 1026.74 1026.50 1026.22 1025.89 1025.52 1025.13 1024.72
1022.77 1023.22 1023.65 1024.05 1024.41 1024.75 1025.06 1025.36 1025.67 1026.00 1026.35 1026.74 1027.15 1027.56 1027.97 1028.35 1028.67 1028.94 1029.13 1029.25 1029.29 1029.26 1029.17 1029.03 1028.85 1028.65 1028.43 1028.21 1027.99 1027.80 1027.62 1027.46 1027.32 1027.18 1027.02 1026.85 1026.63 1026.37 1026.05 1025.69 1025.28 1024.85 1024.41
1021.91 1022.36 1022.80 1023.21 1023.59 1023.93 1024.25 1024.56 1024.88 1025.21 1025.57 1025.97 1026.39 1026.82 1027.26 1027.68 1028.06 1028.39 1028.65 1028.84 1028.96 1029.00 1028.98 1028.90 1028.76 1028.59 1028.39 1028.18 1027.97 1027.76 1027.57 1027.39 1027.22 1027.05 1026.87 1026.66 1026.42 1026.12 1025.78 1025.39 1024.95 1024.50 1024.04
1020.96 1021.42 1021.87 1022.30 1022.69 1023.05 1023.39 1023.71 1024.04 1024.38 1024.75 1025.15 1025.58 1026.02 1026.48 1026.93 1027.35 1027.73 1028.05 1028.32 1028.51 1028.63 1028.68 1028.66 1028.59 1028.46 1028.29 1028.10 1027.89 1027.68 1027.47 1027.26 1027.06 1026.86 1026.63 1026.39 1026.11 1025.78 1025.41 1025.00 1024.56 1024.10 1023.63
1020.00 1020.47 1020.93 1021.37 1021.78 1022.16 1022.51 1022.85 1023.19 1023.55 1023.92 1024.33 1024.76 1025.21 1025.68 1026.14 1026.59 1027.00 1027.37 1027.69 1027.94 1028.13 1028.25 1028.30 1028.28 1028.21 1028.08 1027.92 1027.73 1027.53 1027.31 1027.08 1026.84 1026.60 1026.33 1026.05 1025.73 1025.37 1024.98 1024.56 1024.11 1023.64 1023.17
1019.13 1019.59 1020.04 1020.48 1020.90 1021.29 1021.67 1022.03 1022.38 1022.75 1023.14 1023.54 1023.98 1024.43 1024.90 1025.36 1025.81 1026.24 1026.63 1026.98 1027.27 1027.50 1027.67 1027.78 1027.83 1027.81 1027.74 1027.63 1027.47 1027.28 1027.07 1026.83 1026.57 1026.30 1025.99 1025.67 1025.31 1024.93 1024.52 1024.08 1023.63 1023.16 1022.69
1018.43 1018.85 1019.28 1019.71 1020.12 1020.51 1020.89 1021.26 1021.63 1022.01 1022.40 1022.82 1023.25 1023.70 1024.15 1024.61 1025.05 1025.47 1025.86 1026.21 1026.51 1026.77 1026.98 1027.13 1027.23 1027.27 1027.26 1027.20 1027.10 1026.95 1026.76 1026.53 1026.27 1025.97 1025.64 1025.28 1024.90 1024.48 1024.05 1023.59 1023.12 1022.65 1022.16
1017.94 1018.31 1018.69 1019.08 1019.46 1019.84 1020.21 1020.57 1020.94 1021.33 1021.73 1022.14 1022.57 1023.01 1023.45 1023.88 1024.30 1024.70 1025.06 1025.40 1025.70 1025.96 1026.18 1026.36 1026.50 1026.60 1026.66 1026.66 1026.62 1026.53 1026.38 1026.18 1025.93 1025.63 1025.29 1024.91 1024.49 1024.04 1023.58 1023.10 1022.60 1022.10 1021.59
1017.68 1017.98 1018.29 1018.62 1018.95 1019.28 1019.62 1019.97 1020.33 1020.70 1021.10 1021.51 1021.93 1022.35 1022.77 1023.18 1023.57 1023.93 1024.27 1024.57 1024.84 1025.09 1025.32 1025.52 1025.70 1025.84 1025.96 1026.04 1026.06 1026.04 1025.95 1025.79 1025.57 1025.28 1024.93 1024.53 1024.08 1023.60 1023.10 1022.58 1022.06 1021.52 1020.97
1017.62 1017.83 1018.06 1018.31 1018.57 1018.84 1019.12 1019.43 1019.76 1020.11 1020.49 1020.89 1021.29 1021.70 1022.10 1022.48 1022.84 1023.17 1023.47 1023.74 1023.98 1024.21 1024.43 1024.64 1024.85 1025.04 1025.21 1025.35 1025.45 1025.48 1025.46 1025.35 1025.16 1024.88 1024.54 1024.12 1023.65 1023.14 1022.59 1022.03 1021.46 1020.88 1020.30
1017.68 1017.80 1017.94 1018.10 1018.27 1018.47 1018.69 1018.94 1019.22 1019.54 1019.89 1020.26 1020.64 1021.03 1021.40 1021.76 1022.09 1022.38 1022.65 1022.89 1023.12 1023.33 1023.55 1023.77 1023.99 1024.22 1024.43 1024.63 1024.79 1024.88 1024.91 1024.84 1024.68 1024.43 1024.08 1023.65 1023.15 1022.60 1022.02 1021.42 1020.80 1020.18 1019.55
Thickness
5607 5609 5610 5611 5612 5614 5615 5617 5618 5620 5621 5623 5624 5625 5627 5628 5629 5629 5629 5630 5631 5632 5633 5634 5635 5636 5636 5637 5638 5639 5640 5640 5641 5642 5643 5643 5644 5645 5646 5647 5648 5648 5649
5599 5600 5601 5602 5604 5605 5607 5609 5610 5612 5614 5615 5616 5617 5619 5621 5621 5621 5622 5622 5623 5624 5626 5626 5627 5629 5630 5631 5632 5633 5633 5634 5635 5636 5637 5637 5638 5639 5640 5641 5642 5643 5644
5589 5590 5592 5593 5594 5596 5598 5600 5602 5603 5605 5606 5607 5609 5610 5612 5613 5614 5614 5615 5616 5616 5617 5619 5620 5621 5622 5624 5625 5626 5626 5627 5628 5630 5630 5631 5632 5633 5634 5635 5636 5638 5639
5579 5580 5582 5583 5584 5586 5588 5590 5591 5593 5594 5596 5597 5599 5601 5603 5604 5606 5607 5607 5608 5608 5609 5610 5612 5613 5614 5616 5617 5618 5619 5620 5621 5622 5624 5625 5626 5627 5628 5629 5630 5631 5632
5569 5570 5571 5572 5573 5575 5577 5579 5581 5582 5583 5585 5587 5589 5592 5593 5596 5597 5598 5599 5599 5600 5601 5602 5603 5605 5606 5607 5609 5611 5612 5613 5614 5615 5617 5618 5619 5620 5621 5622 5623 5624 5626
5558 5559 5560 5561 5562 5564 5565 5568 5569 5570 5572 5574 5577 5579 5581 5584 5586 5588 5589 5590 5591 5592 5593 5594 5595 5596 5597 5599 5601 5603 5604 5605 5606 5607 5609 5610 5612 5613 5614 5615 5616 5618 5619
5547 5548 5549 5549 5550 5552 5553 5556 5557 5558 5559 5561 5563 5566 5570 5575 5577 5578 5580 5580 5581 5582 5584 5585 5586 5587 5589 5590 5592 5594 5595 5597 5598 5599 5601 5602 5604 5605 5607 5608 5609 5611 5612
5535 5536 5537 5537 5538 5539 5541 5543 5544 5545 5546 5548 5549 5551 5554 5560 5564 5568 5568 5569 5571 5573 5574 5576 5577 5578 5580 5581 5583 5585 5586 5588 5589 5591 5592 5594 5596 5598 5599 5601 5602 5603 5605
5523 5524 5525 5526 5526 5527 5528 5530 5531 5533 5533 5535 5537 5538 5539 5543 5546 5553 5556 5558 5560 5561 5564 5566 5567 5569 5570 5572 5574 5575 5577 5578 5580 5582 5584 5585 5587 5589 5591 5593 5594 5596 5597
5512 5513 5513 5514 5514 5515 5516 5518 5519 5520 5521 5522 5524 5527 5529 5531 5530 5535 5541 5545 5548 5550 5552 5554 5556 5558 5560 5562 5564 5565 5567 5568 5570 5572 5574 5576 5578 5581 5583 5585 5586 5588 5589
5500 5500 5501 5502 5502 5503 5504 5505 5507 5508 5509 5510 5511 5513 5515 5518 5519 5519 5523 5528 5532 5536 5539 5542 5544 5546 5548 5551 5553 5554 5556 5558 5559 5561 5564 5566 5568 5571 5574 5576 5578 5579 5581
5488 5489 5489 5491 5491 5492 5492 5494 5495 5496 5497 5498 5500 5501 5502 5504 5506 5507 5509 5512 5516 5522 5526 5529 5532 5534 5537 5539 5541 5543 5544 5546 5548 5551 5553 5556 5558 5560 5563 5566 5568 5570 5571
5477 5478 5478 5479 5480 5481 5482 5483 5483 5485 5486 5487 5488 5489 5491 5492 5494 5495 5496 5498 5502 5507 5512 5516 5519 5521 5524 5526 5528 5531 5532 5534 5537 5539 5542 5544 5547 5549 5551 5555 5557 5559 5561
5467 5467 5468 5469 5470 5471 5471 5472 5473 5474 5475 5476 5477 5478 5479 5480 5481 5483 5484 5484 5486 5492 5497 5502 5506 5508 5510 5513 5515 5517 5519 5521 5524 5527 5529 5532 5534 5537 5539 5542 5545 5547 5550
5456 5457 5458 5458 5459 5460 5461 5461 5462 5463 5464 5465 5466 5466 5468 5469 5470 5471 5472 5473 5472 5476 5484 5490 5491 5495 5496 5498 5501 5503 5506 5508 5510 5513 5516 5518 5521 5524 5527 5529 5533 5535 5538
5445 5445 5447 5448 5449 5449 5450 5450 5451 5452 5453 5454 5455 5455 5456 5457 5458 5459 5460 5461 5461 5463 5468 5476 5477 5479 5481 5483 5486 5489 5492 5494 5497 5500 5502 5505 5507 5510 5513 5517 5520 5523 5525
5435 5435 5436 5437 5438 5438 5439 5439 5440 5441 5442 5442 5443 5444 5445 5446 5445 5446 5447 5447 5448 5450 5453 5461 5462 5464 5466 5468 5471 5474 5478 5481 5484 5486 5489 5491 5494 5497 5499 5503 5506 5509 5512
5424 5424 5425 5426 5427 5427 5427 5428 5429 5430 5430 5431 5431 5432 5433 5433 5433 5433 5434 5434 5435 5437 5439 5444 5447 5449 5452 5454 5457 5460 5464 5467 5470 5472 5474 5477 5480 5483 5486 5489 5491 5495 5498
5412 5413 5414 5414 5415 5415 5416 5417 5417 5417 5418 5418 5419 5420 5421 5421 5421 5421 5421 5422 5423 5424 5425 5428 5433 5435 5437 5439 5442 5445 5448 5452 5455 5458 5460 5463 5466 5469 5472 5475 5477 5481 5484
5401 5401 5402 5403 5404 5404 5404 5404 5404 5405 5405 5405 5406 5406 5408 5408 5409 5409 5409 5409 5409 5409 5411 5413 5418 5421 5422 5424 5426 5430 5433 5436 5440 5443 5446 5449 5452 5454 5458 5461 5465 5467 5470
5388 5388 5389 5390 5391 5392 5392 5392 5392 5392 5392 5392 5393 5393 5394 5396 5396 5396 5396 5396 5396 5396 5397 5399 5403 5406 5408 5409 5411 5414 5418 5421 5425 5427 5431 5435 5438 5441 5444 5446 5449 5452 5456
5375 5376 5377 5377 5378 5379 5379 5379 5379 5379 5379 5379 5380 5381 5381 5382 5383 5384 5384 5384 5384 5384 5385 5387 5390 5392 5395 5395 5397 5397 5400 5404 5410 5414 5414 5420 5422 5427 5431 5433 5436 5439 5442
5362 5363 5363 5364 5365 5365 5366 5366 5366 5367 5367 5367 5368 5368 5369 5370 5370 5370 5370 5370 5371 5372 5374 5376 5377 5380 5381 5383 5382 5383 5385 5388 5394 5397 5397 5405 5408 5413 5417 5419 5422 5425 5428
5349 5350 5351 5351 5352 5353 5354 5354 5354 5354 5354 5355 5355 5355 5355 5357 5356 5356 5356 5356 5358 5360 5361 5362 5365 5366 5366 5367 5367 5369 5371 5373 5378 5381 5382 5388 5394 5398 5403 5405 5407 5410 5413
5337 5337 5338 5339 5339 5340 5340 5341 5341 5341 5342 5342 5342 5343 5343 5344 5345 5344 5344 5345 5346 5347 5348 5349 5351 5352 5353 5353 5353 5353 5355 5357 5364 5369 5369 5372 5380 5383 5388 5392 5394 5396 5399
5324 5325 5326 5326 5326 5327 5328 5329 5329 5329 5330 5330 5330 5329 5330 5330 5331 5331 5331 5333 5334 5335 5335 5336 5337 5339 5339 5340 5340 5340 5341 5343 5348 5354 5358 5358 5363 5364 5371 5378 5380 5383 5385